Location: Martinez
(33.5170°N, 82.0760°W)
Time: 20:38:43
(UTC-05:00)

Hubble Space Telescope - Visible Passes

Search period start: 06 March 2015 00:00
Search period end: 16 March 2015 01:00
Orbit: 543 x 547 km, 28.5° (Epoch: 05 March)

Date Brightness Start Highest point End Pass type
(mag) Time Alt. Az. Time Alt. Az. Time Alt. Az.
06 Mar 2.6 04:56:57 22° SSE 04:56:57 22° SSE 04:59:07 10° SE visible
07 Mar 3.1 04:49:23 16° SSE 04:49:23 16° SSE 04:50:36 10° SE visible
08 Mar 3.5 05:41:52 10° SSE 05:41:52 10° SSE 05:41:59 10° SSE visible
14 Mar 3.0 20:14:17 10° S 20:16:03 13° SSE 20:17:54 10° SE visible
14 Mar 3.4 21:53:13 10° SW 21:53:48 13° SW 21:53:48 13° SW visible
15 Mar 2.8 20:05:10 10° SSW 20:07:41 16° SSE 20:10:16 10° ESE visible
15 Mar 3.0 21:44:47 10° SW 21:46:16 19° SW 21:46:16 19° SW visible
